Other Surface Observations
Issued by NWS Tucson, AZ

Home | Current Version | Previous Version | Text Only | Print | Product List | Glossary On
Versions: 1 2 3 4 5 6 7 8 9 10 11 12 13 14 15 16 17 18 19 20 21 22 23 24 25 26 27 28 29 30 31 32 33 34 35 36 37 38 39 40 41 42 43 44 45 46 47 48 49 50
843
SXUS55 KTWC 252215
OSOTWC

WEATHER ROUNDUP FOR SOUTHEAST ARIZONA
NATIONAL WEATHER SERVICE TUCSON AZ
315 PM MST TUE APR 25 2017

AZZ504>506-514-252315-
LOCATION       SKY/WX    TMP DP  RH WIND       PRES   REMARKS
TUCSON         CLOUDY    80  40  23 W18G37    29.77R
DAVIS-MONTHAN  PTSUNNY   80  41  24 W17G32    29.75R
CHILDRENS PARK N/A      N/A N/A  26 W12               PIMA CO DEQ
ALVERNON/22ND  N/A       79 N/A N/A W12               PIMA CO DEQ
CHERRY/GLENN   N/A      N/A N/A N/A N/A               PIMA CO DEQ
TANGERINE      N/A       79 N/A N/A W13               PIMA CO DEQ
CONTL RANCH    N/A       80  42  26 W12               PIMA CO DEQ
GRANT/1ST      N/A       80  39  23 W13               PIMA CO DEQ
CRAYCROFT/22ND N/A       80  39  23 N/A               PIMA CO DEQ
GOLFLINKS/KOLB N/A      N/A N/A N/A N/A               PIMA CO DEQ
AJO/12TH       N/A       80  40  24 W16               PIMA CO DEQ
FAIRGROUNDS    N/A       79 N/A N/A W18               PIMA CO DEQ
SAGUARO        N/A       79  41  26 W10G27            *SABINO CYN
SAN CARLOS     N/A       77  42  29 W13G23            *SAN CARLOS
GREEN VALLEY   N/A       80  38  22 SW13              PIMA CO DEQ
HORSE CAMP CYN N/A       69  40  35 W17G31            *ARAVAIPA CYN
RINCON MTNS    N/A       53  35  50 W7G21             *NR MANNING CAMP
$$

AZZ509>511-252315-
LOCATION       SKY/WX    TMP DP  RH WIND       PRES   REMARKS
SAFFORD        MOSUNNY   80  38  22 W35G45    29.66S
STRAY HORSE    N/A       53  36  53 N/A               *
TRAIL CABIN    N/A       61  38  43 W11G25            *N OF GRANVILLE
BLACK HILLS    NOT AVBL
DRY LAKE       N/A       54  37  53 W8G15             *NATANES MTNS
NOON CREEK     N/A       71  33  25 SW14G30           *PINALENO MTNS
COLUMBINE      N/A       47  32  56 SW13G23           *PINALENO MTNS
GUTHRIE        N/A       64  36  35 W19G42            *SW OF GUTHRIE
$$

AZZ502-503-513-252315-
LOCATION       SKY/WX    TMP DP  RH WIND       PRES   REMARKS
NOGALES        PTSUNNY   77  37  23 SW12G29   29.82R
SELLS          N/A       80  44  28 NE11G21           *
SASABE         N/A       78  39  25 SW13G24           *ALTAR VLY
HOPKINS        N/A       68  35  30 W12G24            *SANTA RITA MTNS
CARR CYN       N/A       70  34  27 SW5G15            *W OF HEREFORD
$$

AZZ507-508-512-252315-
LOCATION       SKY/WX    TMP DP  RH WIND       PRES   REMARKS
SIERRA VISTA   PTSUNNY   74  34  23 SW26G32   29.83R
DOUGLAS        MOSUNNY   77  33  20 SW25G36   29.76F
EMPIRE MTNS    NOT AVBL
MULESHOE RANCH N/A       70  36  29 W17G37            *PRESERVE
HEADQUARTERS   NOT AVBL
$$

.............................NOTES.............................
THIS IS AN AUTOMATED COLLECTIVE WITH MINIMAL QUALITY CONTROL.
PIMA CO DEQ SITES HAVE NONSTANDARD WIND SENSOR HEIGHTS.
PIMA CO DEQ SITES DO NOT REPORT WIND GUSTS.
* INDICATES WIND SENSORS LOCATED AT 20 FEET INSTEAD OF 33 FEET.
..............................KEY..............................
SKY/WX - SKY CONDITION/WEATHER
TMP    - TEMPERATURE IN FAHRENHEIT
DP     - DEWPOINT IN FAHRENHEIT
RH     - RELATIVE HUMIDITY IN PERCENT
WIND   - DIRECTION AND SPEED IN MILES PER HOUR (MPH)
VRB    - VARIABLE WIND DIRECTION
PRES   - MEAN SEA LEVEL PRESSURE IN INCHES OF MERCURY
         F - FALLING PRESSURE   R - RISING PRESSURE
         S - STEADY PRESSURE
VSB    - VISIBILITY IN MILES
HX     - HEAT INDEX IN FAHRENHEIT
WCI    - WIND CHILL INDEX IN FAHRENHEIT
N/A    - NOT AVAILABLE
AFB    - AIR FORCE BASE
         DAVIS-MONTHAN IS DAVIS-MONTHAN AIR FORCE BASE
CYN    - CANYON
MTNS   - MOUNTAINS
NCA    - NATIONAL CONSERVATION AREA
NR     - NEAR
VLY    - VALLEY
CONTL  - CONTINENTAL
PIMA CO DEQ - PIMA COUNTY DEPT OF ENVIRONMENTAL QUALITY



USA.gov is the U.S. government's official web portal to all federal, state and local government web resources and services.